Tracking 32938 objects as of 13-Jan-2026
HD Live streaming from Space Station
objects crossing your sky now

QIANFAN-38

Track QIANFAN-38 now!
10-day predictions
QIANFAN-38 is classified as:


NORAD ID: 62239
Int'l Code: 2024-232C
Perigee: 1,063.5 km
Apogee: 1,088.1 km
Inclination: 89.0 °
Period: 106.6 minutes
Semi major axis: 7446 km
RCS: Unknown
Launch date: December 5, 2024
Source: People's Republic of China (PRC)
Launch site: Taiyaun Space Center, China (TSC)
Your satellite tracking list
Your tracking list is empty




NASA's NSSDC Master Catalog

Two Line Element Set (TLE):
1 62239U 24232C   26013.27236511  .00000045  00000-0  50617-4 0  9996
2 62239  89.0003  38.0611 0016503 103.0416 257.2579 13.50980194103486
Source of the keplerian elements: AFSPC